TJS-3 AKM (43917 NORAD) Tracking and Keplerian Element Data

This shows tracking and keplerian element data for the satellite.

Feedback or suggestion? Click here.




ElementValue
Catalog43917
NameTJS-3 AKM
Epoch Orbit24
Epoch Day20.95379218
Epoch Year2019
RAAN236.1915
Inclination0.0661
Eccentricity0.0001639
Argument of Perigee23.2441
Mean Anonmoly263.0963
Mean Motion1.00268654
Decay Rate5.3E-07
L11 43917U 18110C 19020.95379218 .00000053 00000-0 00000-0 0 9999
L22 43917 0.0661 236.1915 0001639 23.2441 263.0963 1.00268654 248

Live tracking and technical data element details for TJS-3 AKM (NORAD 43917). TJS-3 AKM can be tracked NOW for your location showing map with azimuth and elevation plus other details from your city location.

Track the satellite on the map from your city or location and see movement details for azimuth, elevation, latitude, longitude, range, height, and movement on the map or in text.







IsCatalogInMostPopularTable: catalog: 43917, numindb: 11
Update: records affected: 1



GetName: 43917 TJS-3 AKM

Hit Count: updated at: Wed, 23 Jan 2019 02:47:56 GMT